Tracking 18945 objects as of 20-Jan-2018
HD Live streaming from Space Station
objects crossing your sky now

CZ-4B DEB

Track CZ-4B DEB now!
10-day predictions


NORAD ID: 29215
Int'l Code: 2002-024F
Perigee: 851.2 km
Apogee: 1,219.0 km
Inclination: 98.8 °
Period: 105.7 minutes
Semi major axis: 7406 km
RCS: 0.0014 m2 (small)
Launch date: May 15, 2002
Source: People's Republic of China (PRC)
Launch site: Taiyaun Space Center, China (TSC)

Note: This is SATELLITE DEBRIS
aabbcc
Your satellite tracking list
Your tracking list is empty




NASA's NSSDC Master Catalog

Two Line Element Set (TLE):
1 29215U 02024F   18019.72485446  .00000148  00000-0  19734-3 0  9996
2 29215  98.8265 299.3725 0248298   1.1923  27.0164 13.62134372769627
Source of the keplerian elements: AFSPC